Flag for Canada Weather past 2 weeks in Taloyoak, Nunavut Territory, Canada

Now
30 °F

Scattered showers. Broken clouds.


Feels Like: 25 °F
Forecast: 24 / 27 °F
Wind: 5 mph from South

Location: Spence Bay Airport

Current Time: Sep 18, 2014 at 2:22:41 PM

Latest Report: Sep 18, 2014 at 2:00 PM


Visibility: 15 mi

Pressure: 29.79 "Hg

Humidity: 75%

Dew point: 23 °F

Location of TaloyoakLocation

Historic Weather in Taloyoak — Graph

°F

Taloyoak temperature yesterday

Maximum temperature yesterday: 32 °F (at 3:00 PM)
Minimum temperature yesterday: 21 °F (at 1:00 AM)
Average temperature yesterday: 27 °F

Past Weeks' High & Low Weather Summary

 TemperatureHumidityPressure
High52 °F (Sep 4, 2:00 PM)100% (Sep 8, 1:00 AM)29.95 "Hg (Sep 8, 1:00 AM)
Low21 °F (Sep 17, 1:00 AM)46% (Sep 9, 3:00 PM)29.43 "Hg (Sep 13, 9:00 AM)
Average34 °F80%29.79 "Hg
* Reported Sep 3 1:00 PM — Sep 18 1:00 PM, Taloyoak, Weather by CustomWeather, © 2014

Note: Actual official high and low records may vary slightly from our data, if they occured in-between our weather recording intervals... More about our weather records

Advertising

Taloyoak weather history for previous 24 hours

 ConditionsComfort  
Time TempWeatherWind HumidityBarometerVisibility
1:00 PM
Sep 18
30 °FScattered showers. Partly sunny.6 mph80%29.80 "Hg15 mi
12:00 PM30 °FLight snow. Low clouds.6 mph75%29.81 "Hg15 mi
11:00 AM30 °FScattered showers. Partly sunny.5 mph69%29.81 "Hg15 mi
10:00 AM28 °FLight snow. Low clouds.2 mph74%29.81 "Hg15 mi
9:00 AM28 °FLight snow. Partly sunny.2 mph86%29.82 "Hg12 mi
8:00 AM28 °FScattered showers. Partly sunny.5 mph86%29.82 "Hg15 mi
1:00 AM28 °FLight snow. Overcast.3 mph86%29.86 "Hg6 mi
12:00 AM28 °FLight snow. Overcast.6 mph93%29.86 "Hg6 mi
11:00 PM
Sep 17
28 °FLight snow. Partly cloudy.10 mph93%29.85 "Hg6 mi
10:00 PM28 °FSnow flurries. Overcast.3 mph93%29.86 "Hg4 mi
9:00 PM28 °FPartly cloudy.3 mph93%29.85 "Hg15 mi
8:00 PM30 °FPassing clouds.2 mph86%29.86 "Hg15 mi
7:00 PM30 °FPartly sunny.5 mph86%29.87 "Hg15 mi
6:00 PM32 °FScattered showers. Partly sunny.5 mph80%29.87 "Hg15 mi
5:00 PM32 °FScattered showers. Partly sunny.5 mph80%29.87 "Hg15 mi
4:00 PM32 °FScattered showers. Overcast.7 mph75%29.87 "Hg15 mi
3:00 PM32 °FScattered showers. Overcast.8 mph75%29.88 "Hg15 mi
2:00 PM30 °FScattered showers. Mostly cloudy.3 mph80%29.88 "Hg15 mi
Weather by CustomWeather, © 2014

See weather overviewHow to use our weather pages